| time (UTC) | temp F | wind direction | speed MPH | gust MPH | rain 1hr in | rain 24hr in | rain mn in | humidity % | barometer mb |
| 20260904184018 | 80 | 62 | 1.0 | 2.0 | 0.00 | 0.00 | 0.00 | 78 | 1016.9 |
| 20260904183034 | 80 | 74 | 1.0 | 3.0 | 0.00 | 0.00 | 0.00 | 78 | 1016.8 |
| 20260904182029 | 81 | 75 | 1.0 | 3.0 | 0.00 | 0.00 | 0.00 | 78 | 1016.8 |
| 20260904181024 | 81 | 69 | 1.0 | 3.0 | 0.00 | 0.00 | 0.00 | 77 | 1017.0 |
| 20260904180019 | 82 | 67 | 1.0 | 6.0 | 0.00 | 0.00 | 0.00 | 76 | 1016.8 |
| 20260904175035 | 82 | 69 | 2.0 | 4.0 | 0.00 | 0.00 | 0.00 | 76 | 1016.7 |
| 20260904174030 | 82 | 76 | 2.0 | 8.0 | 0.00 | 0.00 | 0.00 | 75 | 1016.8 |
| 20260904173026 | 83 | 86 | 1.0 | 6.0 | 0.00 | 0.00 | 0.00 | 75 | 1016.7 |
| 20260904172020 | 83 | 73 | 2.0 | 7.0 | 0.00 | 0.00 | 0.00 | 74 | 1016.7 |
| 20260904171016 | 83 | 58 | 1.0 | 4.0 | 0.00 | 0.00 | 0.00 | 74 | 1016.7 |
| 20260904170031 | 83 | 62 | 3.0 | 7.0 | 0.00 | 0.00 | 0.00 | 73 | 1016.7 |
| 20260904165027 | 83 | 54 | 3.0 | 6.0 | 0.00 | 0.00 | 0.00 | 73 | 1016.6 |
| 20260904164021 | 84 | 63 | 3.0 | 7.0 | 0.00 | 0.00 | 0.00 | 74 | 1016.7 |
| 20260904163017 | 84 | 99 | 6.0 | 10.0 | 0.00 | 0.00 | 0.00 | 74 | 1016.7 |
| 20260904162033 | 84 | 92 | 4.0 | 10.0 | 0.00 | 0.00 | 0.00 | 72 | 1016.8 |
| 20260904161028 | 84 | 76 | 4.0 | 11.0 | 0.00 | 0.00 | 0.00 | 73 | 1017.0 |
| 20260904160023 | 84 | 96 | 5.0 | 10.0 | 0.00 | 0.00 | 0.00 | 75 | 1017.0 |
| 20260904155018 | 84 | 86 | 4.0 | 8.0 | 0.00 | 0.00 | 0.00 | 73 | 1016.9 |
| 20260904154054 | 85 | 98 | 2.0 | 7.0 | 0.00 | 0.00 | 0.00 | 72 | 1016.7 |
| 20260904153028 | 84 | 93 | 6.0 | 13.0 | 0.00 | 0.00 | 0.00 | 73 | 1016.7 |
| 20260904152024 | 85 | 109 | 3.0 | 8.0 | 0.00 | 0.00 | 0.00 | 71 | 1016.7 |
| 20260904151019 | 84 | 93 | 5.0 | 11.0 | 0.00 | 0.00 | 0.00 | 72 | 1016.7 |
| 20260904150035 | 84 | 94 | 6.0 | 13.0 | 0.00 | 0.00 | 0.00 | 72 | 1016.8 |
| 20260904145029 | 84 | 86 | 5.0 | 15.0 | 0.00 | 0.00 | 0.00 | 73 | 1016.8 |
| 20260904144025 | 84 | 95 | 8.0 | 16.0 | 0.00 | 0.00 | 0.00 | 73 | 1016.7 |
| 20260904143040 | 84 | 110 | 8.0 | 15.0 | 0.00 | 0.00 | 0.00 | 74 | 1016.8 |
| 20260904142015 | 84 | 91 | 9.0 | 16.0 | 0.00 | 0.00 | 0.00 | 76 | 1016.7 |
| 20260904141032 | 84 | 98 | 9.0 | 17.0 | 0.00 | 0.00 | 0.00 | 73 | 1016.8 |
| 20260904140026 | 85 | 93 | 8.0 | 19.0 | 0.00 | 0.00 | 0.00 | 70 | 1017.0 |
| 20260904135041 | 86 | 117 | 7.0 | 13.0 | 0.00 | 0.00 | 0.00 | 66 | 1017.0 |
| 20260904134017 | 85 | 109 | 7.0 | 15.0 | 0.00 | 0.00 | 0.00 | 67 | 1017.0 |
| 20260904133033 | 86 | 108 | 6.0 | 14.0 | 0.00 | 0.00 | 0.00 | 67 | 1017.1 |
| 20260904132028 | 86 | 112 | 7.0 | 15.0 | 0.00 | 0.00 | 0.00 | 65 | 1017.3 |
| 20260904131103 | 86 | 99 | 5.0 | 14.0 | 0.00 | 0.00 | 0.00 | 64 | 1017.4 |
| 20260904130018 | 87 | 104 | 6.0 | 11.0 | 0.00 | 0.00 | 0.00 | 64 | 1017.5 |
| 20260904125034 | 86 | 118 | 7.0 | 15.0 | 0.00 | 0.00 | 0.00 | 64 | 1017.5 |
| 20260904124029 | 87 | 96 | 6.0 | 14.0 | 0.00 | 0.00 | 0.00 | 66 | 1017.4 |
| 20260904123024 | 87 | 122 | 6.0 | 11.0 | 0.00 | 0.00 | 0.00 | 64 | 1017.5 |
| 20260904122020 | 87 | 123 | 7.0 | 11.0 | 0.00 | 0.00 | 0.00 | 63 | 1017.5 |
| 20260904121035 | 87 | 135 | 7.0 | 11.0 | 0.00 | 0.00 | 0.00 | 66 | 1017.7 |
| 20260904120031 | 87 | 106 | 7.0 | 14.0 | 0.00 | 0.00 | 0.00 | 65 | 1017.7 |
| 20260904115025 | 87 | 142 | 6.0 | 10.0 | 0.00 | 0.00 | 0.00 | 65 | 1017.9 |
| 20260904114041 | 86 | 135 | 6.0 | 10.0 | 0.00 | 0.00 | 0.00 | 67 | 1017.9 |
| 20260904113016 | 87 | 141 | 6.0 | 11.0 | 0.00 | 0.00 | 0.00 | 67 | 1017.9 |
| 20260904112051 | 87 | 147 | 4.0 | 13.0 | 0.00 | 0.00 | 0.00 | 67 | 1018.0 |
| 20260904111027 | 87 | 171 | 6.0 | 10.0 | 0.00 | 0.00 | 0.00 | 65 | 1017.9 |
| 20260904110022 | 87 | 144 | 7.0 | 13.0 | 0.00 | 0.00 | 0.00 | 64 | 1018.1 |
| 20260904105017 | 88 | 146 | 6.0 | 11.0 | 0.00 | 0.00 | 0.00 | 61 | 1018.1 |
| 20260904104032 | 89 | 169 | 5.0 | 10.0 | 0.00 | 0.00 | 0.00 | 56 | 1018.0 |
| 20260904103028 | 91 | 151 | 3.0 | 9.0 | 0.00 | 0.00 | 0.00 | 51 | 1018.3 |
| 20260904102023 | 90 | 148 | 3.0 | 8.0 | 0.00 | 0.00 | 0.00 | 50 | 1018.4 |
| 20260904101018 | 89 | 186 | 2.0 | 7.0 | 0.00 | 0.00 | 0.00 | 50 | 1018.4 |
| 20260904100034 | 88 | 143 | 3.0 | 6.0 | 0.00 | 0.00 | 0.00 | 51 | 1018.5 |
| 20260904095029 | 88 | 156 | 4.0 | 9.0 | 0.00 | 0.00 | 0.00 | 52 | 1018.5 |
| 20260904094024 | 87 | 168 | 4.0 | 7.0 | 0.00 | 0.00 | 0.00 | 54 | 1018.6 |
| 20260904093019 | 87 | 146 | 3.0 | 7.0 | 0.00 | 0.00 | 0.00 | 53 | 1018.7 |
| 20260904092035 | 86 | 162 | 4.0 | 7.0 | 0.00 | 0.00 | 0.00 | 54 | 1018.6 |
| 20260904091050 | 87 | 160 | 2.0 | 4.0 | 0.00 | 0.00 | 0.00 | 53 | 1018.6 |
| 20260904090025 | 88 | 7 | 1.0 | 3.0 | 0.00 | 0.00 | 0.00 | 52 | 1018.6 |
| 20260904085020 | 86 | 345 | 1.0 | 3.0 | 0.00 | 0.00 | 0.00 | 52 | 1018.4 |
| 20260904084035 | 85 | 196 | 0.0 | 3.0 | 0.00 | 0.00 | 0.00 | 55 | 1018.4 |
| 20260904083030 | 84 | 233 | 1.0 | 3.0 | 0.00 | 0.00 | 0.00 | 57 | 1018.5 |
| 20260904082025 | 83 | 220 | 1.0 | 3.0 | 0.00 | 0.00 | 0.00 | 60 | 1018.4 |
| 20260904081021 | 83 | 296 | 1.0 | 3.0 | 0.00 | 0.00 | 0.00 | 61 | 1018.3 |
| 20260904080036 | 82 | 292 | 0.0 | 3.0 | 0.00 | 0.00 | 0.00 | 62 | 1018.3 |
| 20260904075032 | 81 | 263 | 1.0 | 2.0 | 0.00 | 0.00 | 0.00 | 64 | 1018.4 |
| 20260904074047 | 81 | 275 | 0.0 | 2.0 | 0.00 | 0.00 | 0.00 | 65 | 1018.4 |
| 20260904073022 | 80 | 315 | 0.0 | 2.0 | 0.00 | 0.00 | 0.00 | 67 | 1018.5 |
| 20260904072058 | 79 | 268 | 1.0 | 2.0 | 0.00 | 0.00 | 0.00 | 69 | 1018.6 |
| 20260904071033 | 78 | 342 | 0.0 | 1.0 | 0.00 | 0.00 | 0.00 | 71 | 1018.6 |
| 20260904070048 | 78 | 4 | 0.0 | 1.0 | 0.00 | 0.00 | 0.00 | 74 | 1018.5 |
| 20260904065023 | 77 | 299 | 1.0 | 2.0 | 0.00 | 0.00 | 0.00 | 75 | 1018.7 |
| 20260904064019 | 77 | 291 | 0.0 | 2.0 | 0.00 | 0.00 | 0.00 | 77 | 1018.6 |
| 20260904063054 | 76 | 301 | 0.0 | 1.0 | 0.00 | 0.00 | 0.00 | 80 | 1018.7 |
| 20260904062030 | 76 | 277 | 1.0 | 2.0 | 0.00 | 0.00 | 0.00 | 82 | 1018.7 |
| 20260904061025 | 75 | 292 | 0.0 | 1.0 | 0.00 | 0.00 | 0.00 | 84 | 1018.6 |
| 20260904060021 | 75 | 286 | 0.0 | 1.0 | 0.00 | 0.00 | 0.00 | 84 | 1018.6 |
| 20260904055016 | 75 | 0.0 | 0.0 | 0.00 | 0.00 | 0.00 | 85 | 1018.5 | |
| 20260904054051 | 75 | 0.0 | 0.0 | 0.00 | 0.00 | 0.00 | 85 | 1018.5 | |
| 20260904053027 | 75 | 0.0 | 0.0 | 0.00 | 0.00 | 0.00 | 85 | 1018.5 | |
| 20260904052022 | 75 | 0.0 | 0.0 | 0.00 | 0.00 | 0.00 | 85 | 1018.6 | |
| 20260904051017 | 75 | 0.0 | 0.0 | 0.00 | 0.00 | 0.00 | 85 | 1018.6 | |
| 20260904050033 | 74 | 0.0 | 0.0 | 0.00 | 0.00 | 0.00 | 85 | 1018.5 | |
| 20260904045028 | 74 | 0.0 | 0.0 | 0.00 | 0.00 | 0.00 | 86 | 1018.5 | |
| 20260904044023 | 74 | 0.0 | 0.0 | 0.00 | 0.00 | 0.00 | 86 | 1018.6 | |
| 20260904043019 | 74 | 0.0 | 0.0 | 0.00 | 0.00 | 0.00 | 86 | 1018.6 | |
| 20260904042034 | 74 | 0.0 | 0.0 | 0.00 | 0.00 | 0.00 | 86 | 1018.6 | |
| 20260904041029 | 74 | 301 | 0.0 | 1.0 | 0.00 | 0.00 | 0.00 | 86 | 1018.6 |
| 20260904040045 | 74 | 301 | 1.0 | 1.0 | 0.00 | 0.00 | 0.00 | 86 | 1018.7 |
| 20260904035039 | 75 | 0.0 | 0.0 | 0.00 | 0.00 | 0.00 | 86 | 1018.6 | |
| 20260904034034 | 75 | 0.0 | 0.0 | 0.00 | 0.00 | 0.00 | 85 | 1018.7 | |
| 20260904033030 | 75 | 0.0 | 0.0 | 0.00 | 0.00 | 0.00 | 85 | 1018.7 | |
| 20260904032026 | 75 | 0.0 | 0.0 | 0.00 | 0.00 | 0.00 | 84 | 1018.7 | |
| 20260904031021 | 76 | 0.0 | 0.0 | 0.00 | 0.00 | 0.00 | 85 | 1018.9 | |
| 20260904030056 | 76 | 287 | 0.0 | 1.0 | 0.00 | 0.00 | 0.00 | 85 | 1018.8 |
| 20260904025051 | 76 | 293 | 0.0 | 1.0 | 0.00 | 0.00 | 0.00 | 85 | 1018.8 |
| 20260904024027 | 76 | 290 | 0.0 | 1.0 | 0.00 | 0.00 | 0.00 | 85 | 1018.6 |
| 20260904023022 | 76 | 0.0 | 0.0 | 0.00 | 0.00 | 0.00 | 85 | 1018.8 | |
| 20260904022017 | 76 | 0.0 | 0.0 | 0.00 | 0.00 | 0.00 | 85 | 1018.9 | |
| 20260904021033 | 76 | 278 | 0.0 | 1.0 | 0.00 | 0.00 | 0.00 | 85 | 1019.0 |
| 20260904020028 | 76 | 275 | 0.0 | 1.0 | 0.00 | 0.00 | 0.00 | 84 | 1019.0 |
| 20260904015023 | 76 | 262 | 1.0 | 2.0 | 0.00 | 0.00 | 0.00 | 84 | 1019.1 |
| 20260904014039 | 76 | 274 | 1.0 | 2.0 | 0.00 | 0.00 | 0.00 | 83 | 1019.1 |
| 20260904013055 | 76 | 289 | 1.0 | 2.0 | 0.00 | 0.00 | 0.00 | 83 | 1019.2 |
| 20260904012030 | 76 | 265 | 1.0 | 2.0 | 0.00 | 0.00 | 0.00 | 84 | 1019.3 |
| 20260904011025 | 76 | 268 | 1.0 | 2.0 | 0.00 | 0.00 | 0.00 | 85 | 1019.4 |
| 20260904010021 | 77 | 269 | 0.0 | 2.0 | 0.00 | 0.00 | 0.00 | 86 | 1019.5 |
| 20260904005016 | 77 | 235 | 0.0 | 1.0 | 0.00 | 0.00 | 0.00 | 86 | 1019.5 |
| 20260904004031 | 77 | 273 | 1.0 | 2.0 | 0.00 | 0.00 | 0.00 | 86 | 1019.5 |
| 20260904003027 | 77 | 253 | 2.0 | 4.0 | 0.00 | 0.00 | 0.00 | 86 | 1019.4 |
| 20260904002021 | 77 | 260 | 2.0 | 4.0 | 0.00 | 0.00 | 0.00 | 86 | 1019.6 |
| 20260904001017 | 77 | 278 | 1.0 | 3.0 | 0.00 | 0.00 | 0.00 | 87 | 1019.6 |
| 20260904000033 | 77 | 284 | 1.0 | 2.0 | 0.00 | 0.00 | 0.00 | 87 | 1019.7 |
| 20260903235027 | 78 | 291 | 1.0 | 2.0 | 0.00 | 0.00 | 0.00 | 88 | 1019.8 |
| 20260903234022 | 78 | 306 | 1.0 | 3.0 | 0.00 | 0.00 | 0.00 | 88 | 1019.8 |
| 20260903233018 | 78 | 287 | 1.0 | 2.0 | 0.00 | 0.00 | 0.00 | 87 | 1019.9 |
| 20260903232034 | 78 | 298 | 1.0 | 3.0 | 0.00 | 0.00 | 0.00 | 87 | 1019.9 |
| 20260903231028 | 78 | 303 | 0.0 | 2.0 | 0.00 | 0.00 | 0.00 | 87 | 1019.9 |
| 20260903230024 | 78 | 0.0 | 0.0 | 0.00 | 0.00 | 0.00 | 87 | 1019.9 | |
| 20260903225020 | 78 | 319 | 0.0 | 2.0 | 0.00 | 0.00 | 0.00 | 87 | 1020.0 |
| 20260903224035 | 78 | 0.0 | 0.0 | 0.00 | 0.00 | 0.00 | 87 | 1020.0 | |
| 20260903223030 | 78 | 39 | 0.0 | 1.0 | 0.00 | 0.00 | 0.00 | 87 | 1020.1 |
| 20260903222026 | 78 | 39 | 0.0 | 1.0 | 0.00 | 0.00 | 0.00 | 87 | 1020.2 |
| 20260903221021 | 78 | 0.0 | 0.0 | 0.00 | 0.00 | 0.00 | 87 | 1020.2 | |
| 20260903220016 | 78 | 0.0 | 0.0 | 0.00 | 0.00 | 0.00 | 87 | 1020.2 | |
| 20260903215032 | 79 | 0.0 | 0.0 | 0.00 | 0.00 | 0.00 | 87 | 1020.4 | |
| 20260903214047 | 79 | 43 | 0.0 | 1.0 | 0.00 | 0.00 | 0.00 | 87 | 1020.5 |
| 20260903213022 | 79 | 0.0 | 0.0 | 0.00 | 0.00 | 0.00 | 87 | 1020.6 | |
| 20260903212038 | 79 | 0.0 | 0.0 | 0.00 | 0.00 | 0.00 | 87 | 1020.6 | |
| 20260903211053 | 79 | 0.0 | 0.0 | 0.00 | 0.00 | 0.00 | 87 | 1020.6 | |
| 20260903210028 | 79 | 0.0 | 0.0 | 0.00 | 0.00 | 0.00 | 87 | 1020.7 | |
| 20260903205023 | 79 | 45 | 0.0 | 1.0 | 0.00 | 0.00 | 0.00 | 86 | 1020.6 |
| 20260903204018 | 79 | 48 | 0.0 | 1.0 | 0.00 | 0.00 | 0.00 | 86 | 1020.5 |
| 20260903203053 | 79 | 62 | 0.0 | 3.0 | 0.00 | 0.00 | 0.00 | 86 | 1020.3 |
| 20260903202030 | 79 | 67 | 0.0 | 1.0 | 0.00 | 0.00 | 0.00 | 86 | 1020.3 |
| 20260903201024 | 79 | 71 | 0.0 | 1.0 | 0.00 | 0.00 | 0.00 | 86 | 1020.4 |
| 20260903200019 | 79 | 63 | 1.0 | 2.0 | 0.00 | 0.00 | 0.00 | 86 | 1020.1 |
| 20260903195035 | 79 | 67 | 0.0 | 2.0 | 0.00 | 0.00 | 0.00 | 86 | 1020.0 |
| 20260903194030 | 79 | 80 | 1.0 | 4.0 | 0.00 | 0.00 | 0.00 | 85 | 1020.0 |
| 20260903193025 | 79 | 72 | 1.0 | 3.0 | 0.00 | 0.00 | 0.00 | 85 | 1019.8 |
| 20260903192020 | 79 | 71 | 1.0 | 4.0 | 0.00 | 0.00 | 0.00 | 85 | 1019.6 |
| 20260903191016 | 79 | 80 | 1.0 | 3.0 | 0.00 | 0.00 | 0.00 | 85 | 1019.5 |
| 20260903190032 | 79 | 88 | 2.0 | 4.0 | 0.00 | 0.00 | 0.00 | 84 | 1019.3 |
| 20260903185027 | 80 | 98 | 3.0 | 6.0 | 0.00 | 0.00 | 0.00 | 84 | 1019.2 |